Temp
15 14 13 12 12 12 12 12 12 12 12 11 11 11 10 11 11 11 11 11 11 11 11 11 11 11 10 10 10 10 10 10 10 8 8 7 7 6 6 6 6 7 7
15 13 13 13 13 13 12 12 12 12 11 11 11 10 10 10 11 11 11 11 11 11 10 10 10 10 10 10 10 10 9 9 9 9 8 9 8 7 7 7 6 6 7
15 12 12 13 13 12 12 11 11 11 11 11 11 11 11 10 10 10 10 10 10 10 10 10 10 10 10 10 9 9 9 9 8 8 8 8 8 8 8 7 6 6 6
16 13 11 11 11 11 11 10 11 11 11 11 11 10 9 8 9 10 10 10 10 10 10 10 10 9 9 9 9 9 8 8 8 7 7 7 6 6 7 8 7 6 6
14 12 11 10 10 10 11 11 11 11 11 10 10 10 10 9 10 10 9 9 9 9 9 9 9 9 9 8 8 8 8 8 8 7 7 6 5 5 5 5 6 6 6
13 11 10 9 9 11 11 11 10 10 10 10 10 9 9 9 9 9 9 9 9 9 9 8 8 8 8 8 7 7 7 7 6 6 6 5 5 5 4 5 5 4 5
11 10 9 9 9 10 10 10 10 9 9 9 9 9 9 9 9 8 8 8 8 8 8 8 7 7 7 7 7 7 7 6 6 6 6 6 5 5 5 4 4 4 5
10 9 9 9 9 9 10 9 9 9 9 9 9 9 9 8 8 8 8 7 7 7 7 7 7 7 7 6 6 6 6 6 5 5 5 5 5 5 4 4 3 3 4
10 9 8 8 8 9 9 9 9 9 9 8 8 8 8 8 8 8 8 7 7 7 7 6 6 6 6 6 6 5 5 5 5 4 4 4 4 4 4 4 3 2 1
8 8 8 8 8 9 9 9 9 8 8 8 8 7 7 7 7 7 7 6 6 6 6 6 5 5 5 5 5 5 4 4 4 4 3 3 3 3 3 3 3 2 1
8 8 7 9 9 9 9 8 8 8 8 7 7 7 6 6 6 6 6 5 5 5 5 5 5 4 4 4 4 4 3 3 3 3 2 2 2 2 2 2 1 1 1
7 7 7 7 7 7 6 6 6 5 6 6 6 6 6 6 5 5 5 5 4 4 4 4 4 4 3 3 3 2 2 2 1 1 1 1 1 1 1 1 1 0 0
6 6 6 6 5 5 5 5 5 5 5 5 5 5 5 4 4 4 4 4 4 3 3 3 3 2 2 2 2 2 1 1 1 0 -0 0 0 0 0 -0 -0 -1 -1
6 6 5 5 4 4 4 5 5 5 5 4 4 4 4 3 3 3 3 3 3 3 3 2 2 2 2 1 1 1 0 -0 -1 -1 -1 -1 -1 -1 -1 -0 -1 -1 -1
5 5 5 4 4 4 4 4 4 4 4 4 3 3 3 3 3 2 2 2 2 2 2 2 2 1 1 1 0 -0 -0 -1 -1 -1 -1 -2 -2 -2 -1 -1 -1 -1 -2
5 5 4 4 3 3 4 4 4 3 3 2 2 2 2 2 2 2 2 2 2 1 1 1 0 -0 -0 -1 -1 -1 -1 -2 -2 -2 -2 -2 -2 -2 -2 -3 -2 -2 -2
5 4 4 3 3 2 3 2 2 2 2 1 1 1 1 1 1 1 1 0 -0 -1 -1 -2 -2 -2 -2 -2 -2 -2 -2 -2 -2 -2 -3 -3 -3 -3 -3 -3 -3 -3 -3
4 4 3 2 2 3 2 2 2 1 1 1 1 1 1 1 1 0 0 -0 -1 -1 -1 -2 -2 -2 -2 -3 -3 -3 -3 -3 -3 -3 -3 -4 -4 -4 -4 -4 -4 -4 -4
4 3 3 2 2 1 2 1 1 -0 0 -0 0 1 1 1 0 0 -0 -1 -1 -2 -2 -3 -3 -4 -4 -4 -4 -4 -5 -4 -4 -4 -4 -4 -4 -4 -4 -5 -5 -5 -4
3 2 1 1 1 1 1 1 0 -0 -0 1 1 1 0 -0 -1 -2 -2 -3 -4 -4 -4 -4 -4 -4 -4 -4 -4 -5 -5 -5 -5 -5 -5 -5 -4 -4 -5 -5 -5 -5 -5
1 1 1 1 0 0 0 1 1 0 1 0 -0 -1 -1 -2 -3 -4 -4 -5 -5 -5 -5 -5 -5 -5 -5 -5 -5 -5 -5 -6 -6 -6 -6 -6 -5 -5 -5 -5 -6 -6 -5
1 1 1 -0 0 0 0 0 0 -0 -1 -1 -2 -2 -4 -4 -5 -5 -6 -6 -6 -6 -6 -6 -6 -6 -6 -6 -6 -6 -6 -6 -7 -7 -7 -6 -6 -6 -6 -6 -6 -6 -6
1 0 0 -0 -0 0 -0 -0 -1 -1 -2 -2 -3 -4 -5 -5 -6 -6 -7 -7 -7 -7 -7 -7 -7 -7 -7 -7 -7 -7 -7 -7 -7 -7 -7 -7 -6 -6 -6 -6 -6 -6 -6
-0 -0 -0 -0 -1 -1 -1 -1 -2 -2 -3 -3 -4 -5 -6 -6 -7 -7 -7 -7 -7 -7 -8 -8 -8 -8 -8 -8 -8 -7 -7 -7 -7 -7 -7 -7 -7 -7 -6 -6 -6 -6 -6
-1 -0 -0 -0 -1 -1 -1 -2 -3 -3 -4 -5 -6 -6 -7 -7 -8 -8 -8 -8 -8 -8 -8 -8 -8 -8 -8 -8 -8 -8 -7 -7 -7 -7 -7 -7 -7 -7 -7 -7 -7 -7 -7
-1 -1 -1 -1 -2 -2 -2 -3 -3 -4 -5 -5 -6 -8 -8 -8 -8 -8 -8 -8 -8 -8 -8 -8 -8 -8 -8 -8 -8 -8 -8 -8 -7 -7 -8 -8 -7 -8 -8 -8 -7 -7 -7
Height
1518 1521 1523 1525 1527 1530 1531 1533 1535 1538 1539 1540 1541 1542 1542 1542 1543 1543 1543 1543 1542 1542 1541 1540 1539 1537 1536 1534 1533 1531 1529 1527 1525 1524 1524 1522 1520 1519 1519 1519 1517 1515 1513
1515 1516 1519 1522 1524 1527 1530 1532 1534 1536 1537 1538 1540 1541 1541 1542 1542 1542 1542 1542 1541 1541 1540 1540 1539 1538 1536 1535 1534 1532 1530 1529 1527 1525 1524 1524 1523 1521 1520 1518 1516 1515 1513
1511 1514 1516 1519 1522 1525 1528 1530 1532 1534 1536 1537 1538 1539 1540 1540 1541 1541 1541 1541 1540 1540 1539 1539 1538 1537 1536 1535 1534 1532 1531 1529 1527 1526 1526 1525 1523 1520 1518 1517 1516 1514 1512
1508 1511 1513 1517 1520 1523 1525 1528 1531 1533 1534 1535 1536 1537 1538 1540 1540 1540 1540 1540 1539 1539 1538 1538 1537 1536 1535 1534 1533 1532 1530 1529 1527 1526 1525 1525 1524 1523 1521 1519 1517 1515 1512
1505 1508 1511 1515 1518 1520 1524 1527 1530 1531 1532 1533 1534 1535 1537 1538 1538 1538 1538 1538 1538 1538 1537 1537 1536 1535 1534 1533 1532 1531 1530 1529 1527 1526 1525 1524 1523 1522 1520 1516 1515 1513 1511
1503 1507 1511 1513 1516 1519 1522 1526 1528 1529 1531 1532 1533 1534 1535 1536 1536 1536 1536 1536 1536 1536 1536 1535 1534 1534 1533 1533 1531 1530 1529 1528 1527 1526 1525 1524 1523 1522 1520 1517 1515 1512 1509
1503 1507 1510 1513 1515 1518 1521 1524 1526 1527 1529 1530 1531 1532 1533 1533 1534 1535 1535 1535 1534 1534 1533 1533 1532 1532 1531 1530 1529 1527 1526 1525 1524 1522 1521 1520 1519 1518 1516 1513 1511 1509 1505
1504 1507 1510 1513 1515 1518 1520 1522 1524 1525 1527 1528 1529 1530 1531 1532 1532 1532 1532 1532 1532 1531 1530 1530 1529 1528 1527 1527 1526 1525 1524 1523 1521 1520 1519 1517 1515 1513 1511 1509 1507 1503 1502
1505 1508 1510 1513 1515 1516 1518 1520 1522 1523 1525 1526 1527 1528 1528 1529 1529 1529 1530 1529 1529 1528 1527 1526 1526 1525 1524 1523 1522 1521 1519 1518 1517 1515 1514 1512 1512 1509 1508 1506 1505 1502 1497
1505 1507 1509 1511 1513 1515 1517 1519 1521 1522 1523 1524 1525 1525 1526 1527 1527 1527 1527 1527 1526 1525 1524 1523 1522 1522 1521 1520 1518 1517 1516 1513 1512 1510 1509 1508 1506 1504 1502 1500 1498 1497 1494
1505 1507 1508 1510 1512 1514 1516 1517 1519 1520 1521 1522 1523 1524 1524 1524 1524 1524 1524 1524 1523 1523 1522 1521 1520 1518 1517 1516 1514 1513 1511 1509 1508 1506 1503 1500 1499 1497 1496 1494 1492 1489 1488
1504 1506 1508 1510 1511 1512 1514 1516 1517 1518 1519 1520 1521 1521 1522 1522 1523 1522 1521 1521 1521 1519 1518 1517 1516 1514 1513 1512 1510 1508 1506 1503 1501 1499 1497 1494 1492 1490 1488 1486 1485 1483 1481
1505 1507 1509 1511 1512 1513 1513 1515 1515 1516 1517 1519 1520 1520 1520 1521 1521 1520 1520 1519 1518 1517 1515 1514 1512 1511 1509 1507 1505 1503 1500 1497 1494 1491 1489 1487 1486 1483 1482 1480 1478 1476 1474
1506 1508 1510 1511 1512 1513 1514 1515 1515 1517 1518 1518 1519 1520 1520 1520 1519 1519 1518 1517 1515 1513 1511 1509 1507 1505 1503 1501 1498 1495 1492 1489 1486 1484 1482 1480 1477 1476 1474 1472 1469 1467 1466
1506 1508 1510 1511 1512 1513 1514 1515 1516 1517 1518 1519 1519 1519 1519 1518 1518 1517 1516 1514 1512 1510 1508 1505 1502 1499 1496 1493 1491 1488 1485 1481 1478 1475 1473 1471 1470 1467 1465 1463 1461 1460 1458
1505 1507 1509 1511 1513 1514 1515 1516 1517 1518 1518 1518 1518 1518 1518 1517 1516 1514 1513 1510 1508 1505 1502 1498 1495 1492 1489 1486 1483 1479 1475 1471 1469 1465 1463 1462 1460 1459 1456 1455 1453 1452 1450
1504 1507 1509 1511 1513 1514 1515 1517 1517 1517 1517 1517 1517 1516 1515 1514 1512 1510 1507 1504 1501 1498 1494 1490 1487 1484 1480 1477 1474 1471 1466 1462 1459 1457 1454 1452 1451 1450 1449 1447 1445 1443 1440
1503 1506 1508 1510 1512 1513 1514 1515 1515 1516 1516 1515 1515 1514 1512 1510 1507 1504 1501 1498 1495 1491 1488 1484 1480 1475 1471 1468 1465 1462 1457 1454 1450 1448 1445 1443 1441 1440 1439 1437 1436 1433 1432
1502 1505 1507 1509 1510 1511 1512 1513 1514 1514 1514 1513 1512 1510 1508 1504 1502 1498 1495 1492 1487 1482 1479 1475 1471 1467 1461 1459 1457 1454 1449 1445 1442 1439 1437 1435 1433 1430 1430 1429 1426 1423 1419
1501 1503 1506 1507 1509 1510 1511 1512 1512 1512 1511 1509 1507 1505 1502 1498 1494 1491 1487 1483 1479 1474 1470 1465 1462 1459 1454 1451 1448 1445 1441 1437 1433 1431 1429 1427 1425 1423 1422 1420 1417 1413 1412
1500 1502 1503 1506 1507 1508 1509 1509 1509 1508 1507 1505 1502 1498 1495 1490 1486 1482 1479 1476 1471 1466 1462 1458 1454 1451 1448 1444 1441 1437 1433 1429 1425 1422 1420 1418 1417 1415 1413 1412 1409 1406 1405
1500 1502 1504 1504 1506 1507 1507 1507 1505 1503 1501 1498 1495 1491 1487 1484 1480 1476 1471 1468 1464 1460 1456 1452 1447 1443 1440 1437 1433 1429 1426 1423 1419 1414 1412 1410 1408 1407 1404 1403 1401 1399 1397
1500 1502 1503 1504 1504 1504 1503 1503 1500 1496 1494 1491 1488 1485 1481 1477 1473 1469 1464 1462 1459 1456 1451 1447 1442 1436 1433 1429 1426 1422 1418 1415 1411 1408 1405 1402 1400 1398 1396 1394 1392 1391 1389
1498 1500 1501 1501 1501 1500 1500 1498 1494 1491 1487 1484 1482 1479 1474 1469 1466 1463 1461 1458 1456 1452 1446 1442 1436 1430 1425 1422 1418 1413 1410 1408 1405 1402 1398 1395 1393 1391 1388 1386 1384 1383 1381
1495 1497 1498 1498 1497 1496 1494 1492 1488 1485 1481 1478 1475 1471 1468 1464 1460 1458 1456 1453 1450 1448 1442 1436 1431 1426 1420 1416 1413 1410 1406 1403 1400 1396 1392 1389 1386 1383 1381 1379 1378 1376 1375
1494 1495 1494 1494 1493 1491 1488 1485 1482 1479 1474 1471 1469 1466 1463 1458 1454 1451 1448 1448 1443 1440 1437 1432 1428 1422 1417 1413 1409 1406 1402 1399 1396 1391 1387 1383 1381 1378 1376 1374 1372 1370 1368
Wind_Speed
16 16 17 17 17 16 15 15 14 11 7 6 5 4 4 4 4 4 4 4 4 5 6 8 9 10 11 12 13 13 11 12 13 8 5 6 6 5 6 7 9 13 15
18 18 19 20 19 18 17 16 14 11 8 7 7 7 7 6 6 5 5 4 4 4 6 7 8 9 10 11 11 12 12 12 13 12 6 5 4 4 11 9 8 11 15
19 16 17 19 19 19 17 16 14 11 9 9 8 8 7 7 7 6 7 5 5 5 5 6 6 7 9 10 10 11 11 10 11 11 7 5 4 13 7 9 8 11 13
16 17 16 16 17 17 18 15 14 11 9 9 8 7 5 4 6 7 7 7 6 6 6 7 7 7 8 8 9 9 9 9 9 7 8 5 6 5 8 7 10 13 14
16 16 16 16 15 17 17 15 12 10 10 9 8 8 7 8 8 8 8 8 8 8 8 8 8 8 8 8 8 9 9 8 8 9 9 7 8 6 7 13 13 15 12
13 13 13 14 15 15 15 13 12 10 9 9 8 8 8 7 7 8 8 9 9 10 10 10 10 10 10 10 10 9 9 9 9 9 10 9 7 9 10 14 17 17 16
12 14 14 13 13 14 13 12 10 9 9 9 9 9 9 8 8 9 9 10 10 11 12 11 11 12 12 12 11 11 11 10 10 11 11 12 12 13 14 15 19 17 22
12 13 12 11 11 11 11 10 9 10 10 10 10 9 9 9 9 10 10 10 11 12 13 14 14 14 14 14 14 13 13 13 14 14 14 15 15 16 17 17 19 23 22
12 12 10 9 8 9 10 10 10 10 9 9 10 10 11 10 10 11 11 12 13 14 14 14 15 16 16 16 17 17 17 17 17 18 18 18 19 20 21 22 21 19 18
11 10 9 8 9 9 10 10 9 9 9 11 11 11 11 11 11 11 12 13 13 14 15 15 16 17 18 18 19 20 20 21 21 21 21 21 23 25 25 26 25 24 24
10 9 7 7 8 8 8 9 10 10 10 9 9 9 9 10 11 11 12 13 13 14 15 16 17 18 19 20 21 22 23 24 25 25 26 28 29 28 27 27 25 27 26
10 9 8 7 6 6 6 5 4 4 6 6 6 7 8 9 9 10 12 13 13 14 16 16 17 18 18 20 23 26 28 28 28 30 31 29 27 29 28 29 29 28 28
11 10 10 10 10 9 8 7 5 4 4 3 3 4 5 6 7 9 11 12 14 15 16 17 18 19 20 23 26 28 29 29 31 29 28 30 30 30 30 29 29 27 28
11 11 11 11 10 10 10 9 8 7 6 4 2 1 3 5 7 9 11 13 15 17 19 21 23 24 25 27 29 30 30 30 29 28 29 30 32 33 33 32 31 31 31
12 11 11 10 10 9 8 8 7 5 4 3 2 4 6 8 10 13 15 17 19 21 23 24 26 27 28 29 29 30 33 35 36 34 33 32 31 32 31 30 31 30 30
13 12 11 10 9 8 6 5 3 2 2 4 6 8 10 13 15 18 20 22 24 26 28 29 30 31 32 33 31 31 33 34 34 36 34 31 33 32 33 31 33 34 34
15 13 12 10 8 7 5 4 1 2 4 6 8 11 15 18 21 24 26 29 31 31 31 31 30 32 35 36 36 33 31 32 34 36 36 33 32 32 33 34 33 32 34
15 13 11 10 8 6 4 2 2 4 7 9 12 16 20 24 27 29 32 35 36 37 36 38 37 37 40 40 38 34 31 31 33 35 35 32 32 33 33 33 33 36 36
13 12 10 9 8 5 4 3 4 5 8 12 17 22 26 30 32 34 35 36 37 38 39 39 40 38 39 36 34 34 33 32 34 34 32 31 31 33 32 30 33 35 36
13 13 10 8 5 5 4 4 6 10 13 19 24 28 30 31 32 33 35 35 33 34 34 36 36 37 38 37 34 32 30 31 33 33 31 31 31 31 29 29 31 33 33
12 11 8 5 6 4 5 8 12 17 21 25 28 29 29 30 29 29 31 33 33 32 33 34 37 37 37 35 34 32 30 30 31 29 30 29 27 27 27 26 29 33 32
11 9 6 6 5 6 9 13 17 20 23 25 28 29 28 26 27 29 29 30 29 29 31 33 34 34 34 33 31 28 27 27 29 31 32 31 28 29 29 29 31 30 30
8 7 7 5 7 10 14 18 20 23 25 27 27 28 27 27 22 23 24 26 26 27 29 30 32 33 33 32 30 28 27 25 25 27 27 29 30 29 30 30 29 27 29
9 9 8 8 9 13 18 20 22 24 26 28 27 27 26 24 21 21 21 23 24 27 28 29 33 37 36 34 32 33 27 26 29 29 27 28 28 30 31 28 27 26 26
9 7 8 11 15 18 21 22 24 25 27 26 26 24 20 21 24 23 23 23 24 24 27 30 32 34 33 30 27 27 27 25 26 26 29 30 30 28 28 26 23 23 24
6 8 12 15 17 19 22 23 24 25 27 27 25 22 23 22 24 25 29 24 24 25 25 24 24 27 27 25 24 24 24 24 25 28 30 30 30 27 23 24 25 27 26
Wind_Direction
194 194 196 201 203 199 202 212 218 226 235 241 245 244 231 242 261 287 308 322 342 356 4 6 8 9 13 16 14 15 15 13 10 19 331 315 327 327 324 304 301 314 326
191 201 205 209 209 206 205 210 216 222 231 235 229 217 222 237 257 284 293 306 318 337 352 360 2 7 11 12 12 15 20 13 17 15 11 336 294 337 303 314 311 328 335
196 197 201 207 206 204 203 206 211 219 236 238 243 237 244 255 266 273 283 292 299 317 332 341 347 354 359 1 3 7 11 14 10 19 29 346 335 329 324 326 318 319 332
197 193 193 196 195 199 202 202 212 224 238 236 237 233 230 249 261 271 286 288 289 298 310 322 330 336 341 345 347 352 358 3 359 13 3 0 326 337 327 336 325 338 322
189 186 189 191 185 199 198 204 214 228 233 234 234 233 238 247 268 277 279 281 286 293 301 308 315 318 318 320 325 334 340 342 344 342 343 341 329 314 302 306 307 310 307
181 179 175 177 184 191 196 205 218 227 232 237 237 237 241 253 264 271 277 281 284 290 293 296 298 302 309 315 317 319 324 329 330 331 330 328 322 304 307 304 305 308 319
170 166 166 166 179 188 199 210 221 230 234 237 237 239 244 254 262 267 270 272 279 283 285 291 298 301 300 298 300 303 305 306 308 309 308 308 309 305 304 302 304 300 307
151 158 159 162 175 191 205 216 217 227 233 237 240 246 253 257 262 267 268 271 274 277 285 289 289 288 289 292 293 294 295 297 301 301 301 301 302 301 301 298 297 301 302
138 144 148 153 171 195 206 209 217 227 238 243 247 249 252 257 263 270 274 275 278 279 281 283 285 287 288 288 287 287 288 290 293 293 294 298 301 300 299 297 294 288 286
131 134 143 163 180 193 207 217 225 234 242 242 243 249 257 263 269 274 276 276 276 280 282 284 285 287 289 289 289 289 289 288 289 291 293 295 299 297 295 292 288 282 277
139 139 147 171 190 203 212 221 229 234 244 247 249 253 257 261 267 272 274 276 279 283 286 288 290 292 292 294 295 296 296 294 294 292 292 293 294 292 291 289 282 281 279
140 134 130 132 141 162 177 193 198 200 215 231 238 245 259 267 269 270 273 279 284 286 289 290 291 294 297 298 297 296 294 292 288 286 285 283 283 286 287 287 286 281 279
138 128 118 109 104 109 116 123 139 163 178 191 223 248 266 273 277 285 292 294 294 295 293 290 288 287 285 284 286 287 289 285 286 285 282 284 284 284 287 286 283 279 278
142 134 124 116 112 107 104 103 102 102 104 103 91 34 328 309 308 309 306 304 300 297 294 293 294 296 297 297 298 298 296 292 290 286 281 279 280 283 285 284 281 280 278
154 147 137 127 118 114 112 109 105 96 82 60 20 344 323 319 316 313 312 310 308 306 303 301 300 298 297 297 297 295 294 293 290 286 280 279 276 279 279 277 277 278 279
160 151 143 137 130 127 130 120 101 79 45 11 350 335 329 325 319 316 312 310 307 305 301 299 298 298 300 303 302 302 297 293 290 289 285 278 276 274 275 279 276 276 278
166 160 153 148 142 143 131 124 124 356 348 341 332 329 326 323 320 317 314 312 311 308 304 300 296 294 296 299 303 303 293 290 288 287 284 278 275 274 274 275 275 276 279
167 163 161 157 161 164 170 206 294 323 322 328 325 323 321 319 317 314 312 310 308 305 300 296 295 293 295 297 299 299 291 289 289 288 286 280 278 276 273 274 273 271 270
168 166 165 164 171 183 228 267 307 311 315 318 318 319 317 314 312 309 308 307 305 303 301 298 296 291 293 295 292 289 287 285 286 284 281 278 277 275 275 276 274 276 277
164 162 162 165 170 235 263 297 311 312 313 313 315 312 311 310 310 309 308 308 304 301 298 295 292 290 291 294 293 289 283 279 279 281 280 278 276 277 278 276 277 278 275
157 164 174 173 201 250 278 300 308 309 309 311 311 313 313 313 311 307 304 305 304 304 301 299 297 297 296 296 293 288 284 279 281 282 283 282 280 279 278 276 276 278 283
165 176 191 209 238 271 294 302 306 307 310 312 314 315 313 307 305 306 307 308 309 307 305 305 304 303 302 299 296 290 287 284 281 283 283 284 285 282 280 279 278 280 279
192 207 211 232 273 289 299 306 311 313 314 314 313 311 309 308 307 307 311 309 310 308 306 306 305 305 305 301 299 297 294 289 286 286 289 291 287 288 289 288 287 285 282
194 204 222 256 283 299 308 312 312 314 313 312 311 311 311 312 312 309 308 306 307 307 308 309 309 312 313 310 306 296 301 299 301 303 300 298 296 294 296 295 293 290 287
200 226 266 286 299 307 311 312 312 313 312 311 311 312 310 309 310 308 306 304 301 303 310 310 310 310 312 312 310 307 306 308 309 306 301 302 303 300 302 299 297 296 294
236 270 289 301 307 308 310 311 312 310 312 311 312 310 310 309 311 308 305 303 303 309 310 313 313 310 308 310 311 313 313 311 311 307 302 298 301 297 296 299 297 294 293